Location: ???????
(55.3754°N, 39.3545°E)
Time: 10:47:45
(UTC+00:00)

SKYMED 3 - Pass Details

Date: 14 April 2026
Orbit: 535 x 557 km, 97.8° (Epoch: 19 May)

Event Time Altitude Azimuth Distance (km) Brightness Sun altitude
Rises 17:47:13 0° 16° (NNE) 2,705 8.1 -11.1°
Reaches altitude 10° 17:49:21 10° 19° (NNE) 1,807 7.2 -11.4°
Maximum altitude 17:53:14 69° 103° (ESE) 580 4.2 -11.8°
Drops below altitude 10° 17:57:05 10° 188° (S) 1,791 6.6 -12.2°
Sets 17:59:12 0° 190° (S) 2,678 7.6 -12.5°
